VKG1118 EKCH-LEPA

Flight info

Callsign VKG1118
Flight time 2h 54m
Altitude 34000
Route NEXEN T503 GIMRU DCT MICOS DCT WRB DCT XAROL DCT BOMBI DCT GIGET DCT ABUKA DCT KRH DCT NATOR/N0454F350 DCT LUTIX DCT BENOT DCT NEMOS DCT GEVEA DCT INCUS DCT BALSI DCT RETNO DCT TUPOX DCT MTG DCT DIVKO DCT VATIR N852 VERSO L129 LUNIK
Aircraft A321/M-SDE2E3FGHIJ1RWXYZ/LB2

Departure

Time 2026-05-06 18:27
Airport Copenhagen Kastrup Airport (EKCH)

Arrival

Time 2026-05-06 21:21
Airport Palma de Mallorca Airport (LEPA)
Time Latitude Longitude Altitude Speed Heading
2026-05-06 18:01 55.62696 12.65391 17 ft 0 kts 26°
2026-05-06 18:12 55.62683 12.65379 21 ft 4 kts 26°
2026-05-06 18:13 55.62659 12.65358 21 ft 4 kts 26°
2026-05-06 18:13 55.62634 12.65337 20 ft 4 kts 24°
2026-05-06 18:13 55.62615 12.65323 19 ft 4 kts 11°
2026-05-06 18:13 55.62591 12.65322 20 ft 1 kts 359°
2026-05-06 18:18 55.62595 12.65322 17 ft 4 kts 359°
2026-05-06 18:18 55.62646 12.65277 17 ft 12 kts 294°
2026-05-06 18:19 55.62584 12.65196 17 ft 18 kts 180°
2026-05-06 18:19 55.62450 12.65201 17 ft 19 kts 178°
2026-05-06 18:19 55.62324 12.65205 17 ft 17 kts 183°
2026-05-06 18:19 55.62209 12.65180 17 ft 17 kts 201°
2026-05-06 18:20 55.62088 12.65043 18 ft 24 kts 213°
2026-05-06 18:20 55.61944 12.64875 17 ft 25 kts 213°
2026-05-06 18:20 55.61804 12.64717 17 ft 23 kts 212°
2026-05-06 18:20 55.61677 12.64572 17 ft 21 kts 213°
2026-05-06 18:21 55.61556 12.64431 18 ft 20 kts 213°
2026-05-06 18:21 55.61430 12.64286 17 ft 25 kts 213°
2026-05-06 18:21 55.61279 12.64111 17 ft 26 kts 213°
2026-05-06 18:21 55.61134 12.63945 17 ft 24 kts 213°
2026-05-06 18:22 55.60998 12.63788 17 ft 22 kts 213°
2026-05-06 18:22 55.60878 12.63651 18 ft 15 kts 212°
2026-05-06 18:22 55.60792 12.63592 17 ft 13 kts 162°
2026-05-06 18:22 55.60746 12.63668 17 ft 5 kts 129°
2026-05-06 18:23 55.60736 12.63689 17 ft 0 kts 130°
2026-05-06 18:24 55.60727 12.63708 17 ft 10 kts 130°
2026-05-06 18:25 55.60672 12.63824 19 ft 8 kts 128°
2026-05-06 18:25 55.60680 12.63877 19 ft 0 kts 41°
2026-05-06 18:26 55.60683 12.63882 19 ft 4 kts 41°
2026-05-06 18:26 55.60820 12.64092 19 ft 61 kts 41°
2026-05-06 18:27 55.61307 12.64846 19 ft 122 kts 41°
2026-05-06 18:27 55.62068 12.66018 86 ft 161 kts 41°
2026-05-06 18:27 55.62888 12.67325 802 ft 157 kts 42°
2026-05-06 18:27 55.63701 12.68599 1534 ft 156 kts 43°
2026-05-06 18:28 55.64254 12.69458 1883 ft 160 kts 43°
2026-05-06 18:28 55.65150 12.70839 2080 ft 182 kts 43°
2026-05-06 18:28 55.66154 12.72353 2238 ft 203 kts 41°
2026-05-06 18:28 55.67266 12.74091 2390 ft 224 kts 51°
2026-05-06 18:29 55.67950 12.76712 2673 ft 243 kts 83°
2026-05-06 18:29 55.67718 12.79690 3367 ft 250 kts 113°
2026-05-06 18:29 55.66641 12.82127 4127 ft 258 kts 142°
2026-05-06 18:29 55.65003 12.83370 4884 ft 266 kts 168°
2026-05-06 18:30 55.63145 12.83678 5645 ft 270 kts 174°
2026-05-06 18:30 55.61247 12.83840 6366 ft 275 kts 175°
2026-05-06 18:30 55.59322 12.83987 7078 ft 278 kts 175°
2026-05-06 18:30 55.57380 12.83861 7762 ft 283 kts 191°
2026-05-06 18:31 55.55572 12.82447 8443 ft 288 kts 217°
2026-05-06 18:31 55.54041 12.80176 9232 ft 287 kts 221°
2026-05-06 18:31 55.52530 12.77873 10015 ft 287 kts 221°
2026-05-06 18:31 55.50960 12.75476 10300 ft 305 kts 221°
2026-05-06 18:32 55.49298 12.72941 10432 ft 326 kts 221°
2026-05-06 18:32 55.47559 12.70301 10753 ft 339 kts 221°
2026-05-06 18:32 55.45762 12.67589 11371 ft 342 kts 220°
2026-05-06 18:32 55.43948 12.64864 12021 ft 344 kts 221°
2026-05-06 18:33 55.42117 12.62115 12644 ft 347 kts 221°
2026-05-06 18:33 55.40251 12.59314 13303 ft 350 kts 221°
2026-05-06 18:33 55.38393 12.56527 13927 ft 352 kts 221°
2026-05-06 18:33 55.36522 12.53721 14473 ft 355 kts 221°
2026-05-06 18:34 55.34657 12.50928 14995 ft 359 kts 221°
2026-05-06 18:34 55.32752 12.48077 15547 ft 361 kts 221°
2026-05-06 18:34 55.30830 12.45208 16092 ft 364 kts 221°
2026-05-06 18:34 55.28892 12.42318 16619 ft 367 kts 221°
2026-05-06 18:35 55.26939 12.39407 17142 ft 370 kts 221°
2026-05-06 18:35 55.24966 12.36469 17664 ft 373 kts 221°
2026-05-06 18:35 55.22979 12.33518 18188 ft 376 kts 221°
2026-05-06 18:35 55.20975 12.30552 18626 ft 379 kts 221°
2026-05-06 18:36 55.18955 12.27567 19068 ft 381 kts 221°
2026-05-06 18:36 55.16901 12.24526 19520 ft 383 kts 221°
2026-05-06 18:36 55.14861 12.21506 19960 ft 385 kts 221°
2026-05-06 18:36 55.12840 12.18520 20356 ft 388 kts 221°
2026-05-06 18:37 55.10769 12.15464 20784 ft 390 kts 221°
2026-05-06 18:37 55.08687 12.12405 21238 ft 392 kts 221°
2026-05-06 18:37 55.06598 12.09347 21772 ft 391 kts 221°
2026-05-06 18:37 55.04513 12.06295 22244 ft 392 kts 221°
2026-05-06 18:38 55.02419 12.03232 22696 ft 393 kts 221°
2026-05-06 18:38 55.00318 12.00164 23141 ft 395 kts 221°
2026-05-06 18:38 54.98210 11.97089 23565 ft 396 kts 221°
2026-05-06 18:38 54.96093 11.94003 23919 ft 398 kts 221°
2026-05-06 18:39 54.93966 11.90899 24268 ft 399 kts 220°
2026-05-06 18:39 54.91828 11.87783 24534 ft 403 kts 220°
2026-05-06 18:39 54.89670 11.84642 24833 ft 406 kts 220°
2026-05-06 18:40 54.85317 11.78335 25487 ft 409 kts 220°
2026-05-06 18:40 54.83125 11.75171 25817 ft 411 kts 220°
2026-05-06 18:40 54.80922 11.71994 26149 ft 413 kts 220°
2026-05-06 18:40 54.78709 11.68800 26471 ft 414 kts 220°
2026-05-06 18:41 54.76492 11.65605 26796 ft 416 kts 219°
2026-05-06 18:41 54.74259 11.62399 27109 ft 418 kts 219°
2026-05-06 18:41 54.72016 11.59184 27419 ft 419 kts 219°
2026-05-06 18:41 54.69762 11.55953 27663 ft 423 kts 219°
2026-05-06 18:42 54.67490 11.52702 27884 ft 426 kts 219°
2026-05-06 18:42 54.65199 11.49431 28155 ft 428 kts 219°
2026-05-06 18:42 54.62899 11.46150 28435 ft 430 kts 219°
2026-05-06 18:42 54.60592 11.42857 28713 ft 431 kts 219°
2026-05-06 18:43 54.58276 11.39559 28993 ft 433 kts 219°
2026-05-06 18:43 54.55943 11.36249 29274 ft 435 kts 219°
2026-05-06 18:43 54.53598 11.32932 29575 ft 436 kts 218°
2026-05-06 18:43 54.51265 11.29630 30005 ft 433 kts 218°
2026-05-06 18:44 54.48943 11.26344 30397 ft 431 kts 218°
2026-05-06 18:44 54.46627 11.23073 30688 ft 431 kts 218°
2026-05-06 18:44 54.44305 11.19800 30946 ft 432 kts 218°
2026-05-06 18:44 54.41981 11.16529 31269 ft 431 kts 218°
2026-05-06 18:45 54.39660 11.13273 31613 ft 430 kts 217°
2026-05-06 18:45 54.37344 11.10028 31971 ft 429 kts 217°
2026-05-06 18:45 54.35036 11.06799 32330 ft 427 kts 217°
2026-05-06 18:45 54.32734 11.03586 32680 ft 426 kts 217°
2026-05-06 18:46 54.30326 11.00666 33033 ft 423 kts 208°
2026-05-06 18:46 54.27706 10.98438 33369 ft 420 kts 201°
2026-05-06 18:46 54.25016 10.96510 33704 ft 418 kts 201°
2026-05-06 18:46 54.22336 10.94581 33869 ft 418 kts 201°
2026-05-06 18:47 54.19665 10.92652 33887 ft 414 kts 201°
2026-05-06 18:47 54.14411 10.88859 33885 ft 412 kts 201°
2026-05-06 18:48 54.09119 10.85056 33887 ft 412 kts 201°
2026-05-06 18:48 54.03835 10.81265 33887 ft 412 kts 201°
2026-05-06 18:49 53.98546 10.77480 33883 ft 413 kts 201°
2026-05-06 18:49 53.93248 10.73711 33891 ft 414 kts 201°
2026-05-06 18:50 53.87898 10.69903 33888 ft 414 kts 201°
2026-05-06 18:50 53.82621 10.66160 33884 ft 414 kts 201°
2026-05-06 18:51 53.77301 10.62403 33885 ft 414 kts 201°
2026-05-06 18:51 53.71979 10.58649 33874 ft 415 kts 201°
2026-05-06 18:52 53.66639 10.54884 33866 ft 416 kts 201°
2026-05-06 18:52 53.61292 10.51137 33863 ft 417 kts 201°
2026-05-06 18:53 53.55935 10.47396 33854 ft 417 kts 201°
2026-05-06 18:53 53.50578 10.43656 33847 ft 417 kts 201°
2026-05-06 18:54 53.45209 10.39931 33841 ft 418 kts 201°
2026-05-06 18:54 53.39836 10.36204 33844 ft 418 kts 201°
2026-05-06 18:55 53.34453 10.32471 33843 ft 419 kts 201°
2026-05-06 18:55 53.29074 10.28757 33849 ft 418 kts 202°
2026-05-06 18:56 53.23684 10.25040 33851 ft 422 kts 202°
2026-05-06 18:56 53.18270 10.21331 33844 ft 420 kts 202°
2026-05-06 18:57 53.12851 10.17632 33842 ft 421 kts 202°
2026-05-06 18:57 53.07439 10.13942 33841 ft 421 kts 202°
2026-05-06 18:58 53.02023 10.10260 33838 ft 421 kts 202°
2026-05-06 18:58 52.96603 10.06586 33840 ft 421 kts 202°
2026-05-06 18:59 52.91180 10.02924 33844 ft 421 kts 202°
2026-05-06 18:59 52.85755 9.99258 33844 ft 421 kts 202°
2026-05-06 19:00 52.80331 9.95607 33847 ft 421 kts 202°
2026-05-06 19:00 52.74904 9.91977 33850 ft 421 kts 202°
2026-05-06 19:01 52.69478 9.88334 33848 ft 421 kts 202°
2026-05-06 19:01 52.64052 9.84701 33852 ft 421 kts 202°
2026-05-06 19:02 52.58626 9.81090 33847 ft 421 kts 202°
2026-05-06 19:02 52.53195 9.77491 33846 ft 421 kts 202°
2026-05-06 19:03 52.47761 9.73890 33848 ft 421 kts 202°
2026-05-06 19:03 52.42323 9.70300 33842 ft 421 kts 201°
2026-05-06 19:04 52.36889 9.66715 33836 ft 421 kts 202°
2026-05-06 19:04 52.31444 9.63126 33837 ft 422 kts 202°
2026-05-06 19:05 52.25993 9.59551 33827 ft 422 kts 202°
2026-05-06 19:05 52.20545 9.55989 33829 ft 422 kts 202°
2026-05-06 19:06 52.15093 9.52447 33828 ft 422 kts 202°
2026-05-06 19:06 52.09635 9.48906 33825 ft 422 kts 202°
2026-05-06 19:07 52.04191 9.45362 33825 ft 421 kts 202°
2026-05-06 19:07 51.98748 9.41834 33824 ft 421 kts 202°
2026-05-06 19:08 51.93303 9.38327 33824 ft 421 kts 202°
2026-05-06 19:08 51.87869 9.34840 33817 ft 421 kts 202°
2026-05-06 19:09 51.82427 9.31348 33819 ft 420 kts 202°
2026-05-06 19:09 51.76997 9.27870 33812 ft 420 kts 202°
2026-05-06 19:10 51.72486 9.24983 33805 ft 420 kts 202°
2026-05-06 19:10 51.67055 9.21527 33797 ft 419 kts 202°
2026-05-06 19:11 51.61631 9.18092 33799 ft 418 kts 202°
2026-05-06 19:11 51.56219 9.14664 33802 ft 418 kts 202°
2026-05-06 19:12 51.50800 9.11299 33804 ft 418 kts 198°
2026-05-06 19:12 51.45128 9.09206 33786 ft 418 kts 193°
2026-05-06 19:13 51.39438 9.07291 33790 ft 417 kts 193°
2026-05-06 19:13 51.33759 9.05372 33786 ft 417 kts 193°
2026-05-06 19:14 51.28051 9.03680 33775 ft 417 kts 189°
2026-05-06 19:14 51.22279 9.02583 33758 ft 418 kts 188°
2026-05-06 19:15 51.16503 9.01594 33761 ft 417 kts 188°
2026-05-06 19:15 51.10737 9.00496 33758 ft 417 kts 189°
2026-05-06 19:16 51.04987 8.99324 33760 ft 417 kts 189°
2026-05-06 19:16 50.99240 8.98166 33764 ft 416 kts 189°
2026-05-06 19:17 50.93524 8.97033 33777 ft 416 kts 189°
2026-05-06 19:17 50.87783 8.95913 33776 ft 415 kts 189°
2026-05-06 19:18 50.82044 8.94787 33796 ft 416 kts 189°
2026-05-06 19:18 50.76316 8.93662 33791 ft 415 kts 189°
2026-05-06 19:19 50.70594 8.92538 33825 ft 414 kts 189°
2026-05-06 19:19 50.67734 8.91977 34060 ft 414 kts 189°
2026-05-06 19:19 50.64881 8.91419 34293 ft 414 kts 189°
2026-05-06 19:19 50.62026 8.90864 34520 ft 413 kts 189°
2026-05-06 19:20 50.59171 8.90310 34709 ft 414 kts 189°
2026-05-06 19:20 50.53393 8.89189 34765 ft 418 kts 189°
2026-05-06 19:21 50.47611 8.88066 34771 ft 418 kts 189°
2026-05-06 19:21 50.41845 8.86949 34771 ft 418 kts 189°
2026-05-06 19:22 50.36074 8.85839 34769 ft 418 kts 189°
2026-05-06 19:22 50.30306 8.84733 34763 ft 418 kts 189°
2026-05-06 19:23 50.24544 8.83633 34770 ft 417 kts 189°
2026-05-06 19:23 50.18783 8.82522 34775 ft 417 kts 189°
2026-05-06 19:24 50.13025 8.81423 34779 ft 417 kts 189°
2026-05-06 19:24 50.07268 8.80329 34783 ft 416 kts 189°
2026-05-06 19:25 50.01492 8.79203 34797 ft 414 kts 189°
2026-05-06 19:25 49.95791 8.77999 34795 ft 413 kts 189°
2026-05-06 19:26 49.90103 8.76789 34791 ft 412 kts 189°
2026-05-06 19:26 49.84416 8.75602 34789 ft 412 kts 189°
2026-05-06 19:27 49.78732 8.74437 34791 ft 412 kts 189°
2026-05-06 19:27 49.73048 8.73266 34794 ft 412 kts 189°
2026-05-06 19:28 49.67410 8.72103 34803 ft 412 kts 189°
2026-05-06 19:28 49.61689 8.70956 34794 ft 412 kts 189°
2026-05-06 19:29 49.56006 8.69824 34794 ft 412 kts 189°
2026-05-06 19:29 49.50309 8.68679 34793 ft 413 kts 189°
2026-05-06 19:30 49.44605 8.67531 34797 ft 414 kts 189°
2026-05-06 19:30 49.38900 8.66380 34792 ft 414 kts 189°
2026-05-06 19:31 49.33183 8.65225 34791 ft 414 kts 189°
2026-05-06 19:31 49.24604 8.63489 34792 ft 414 kts 189°
2026-05-06 19:32 49.18887 8.62337 34784 ft 414 kts 189°
2026-05-06 19:32 49.13178 8.61191 34803 ft 414 kts 189°
2026-05-06 19:33 49.07476 8.60041 34809 ft 413 kts 190°
2026-05-06 19:33 49.01778 8.58902 34816 ft 412 kts 189°
2026-05-06 19:34 48.96110 8.57602 34820 ft 411 kts 193°
2026-05-06 19:34 48.90534 8.55761 34825 ft 410 kts 195°
2026-05-06 19:35 48.84983 8.53807 34824 ft 409 kts 194°
2026-05-06 19:35 48.79423 8.51957 34824 ft 409 kts 194°
2026-05-06 19:36 48.73854 8.50184 34824 ft 408 kts 194°
2026-05-06 19:36 48.68302 8.48423 34828 ft 407 kts 194°
2026-05-06 19:37 48.62771 8.46654 34828 ft 406 kts 194°
2026-05-06 19:37 48.58183 8.45182 34828 ft 405 kts 194°
2026-05-06 19:38 48.51774 8.43136 34825 ft 405 kts 194°
2026-05-06 19:38 48.46271 8.41382 34825 ft 404 kts 194°
2026-05-06 19:39 48.40765 8.39630 34823 ft 404 kts 194°
2026-05-06 19:39 48.35255 8.37889 34828 ft 405 kts 194°
2026-05-06 19:40 48.29746 8.36140 34834 ft 404 kts 194°
2026-05-06 19:40 48.24265 8.34407 34837 ft 402 kts 194°
2026-05-06 19:41 48.18803 8.32637 34834 ft 401 kts 198°
2026-05-06 19:41 48.13823 8.29064 34834 ft 398 kts 213°
2026-05-06 19:42 48.09183 8.24555 34836 ft 397 kts 212°
2026-05-06 19:42 48.04531 8.20088 34836 ft 397 kts 212°
2026-05-06 19:43 47.99888 8.15632 34834 ft 397 kts 212°
2026-05-06 19:43 47.95242 8.11177 34838 ft 397 kts 212°
2026-05-06 19:44 47.90597 8.06728 34846 ft 396 kts 212°
2026-05-06 19:44 47.85962 8.02292 34848 ft 396 kts 212°
2026-05-06 19:45 47.81318 7.97865 34861 ft 396 kts 212°
2026-05-06 19:45 47.76675 7.93452 34866 ft 396 kts 212°
2026-05-06 19:46 47.72037 7.89048 34863 ft 395 kts 212°
2026-05-06 19:46 47.67404 7.84664 34878 ft 395 kts 212°
2026-05-06 19:47 47.62773 7.80293 34875 ft 394 kts 212°
2026-05-06 19:47 47.58146 7.75931 34877 ft 394 kts 212°
2026-05-06 19:48 47.53523 7.71567 34870 ft 394 kts 212°
2026-05-06 19:48 47.48902 7.67221 34869 ft 393 kts 212°
2026-05-06 19:49 47.44284 7.62894 34874 ft 393 kts 212°
2026-05-06 19:49 47.39660 7.58579 34879 ft 393 kts 212°
2026-05-06 19:50 47.35818 7.54993 34881 ft 393 kts 212°
2026-05-06 19:50 47.31198 7.50680 34869 ft 394 kts 212°
2026-05-06 19:51 47.28868 7.48518 35032 ft 397 kts 212°
2026-05-06 19:51 47.26526 7.46348 35243 ft 398 kts 212°
2026-05-06 19:51 47.24176 7.44170 35402 ft 401 kts 212°
2026-05-06 19:51 47.21811 7.41976 35525 ft 403 kts 212°
2026-05-06 19:52 47.19431 7.39767 35657 ft 405 kts 212°
2026-05-06 19:52 47.17124 7.37372 35812 ft 407 kts 219°
2026-05-06 19:52 47.15101 7.34462 35998 ft 409 kts 228°
2026-05-06 19:52 47.13321 7.31189 36195 ft 410 kts 230°
2026-05-06 19:53 47.11550 7.27904 36406 ft 411 kts 230°
2026-05-06 19:53 47.09771 7.24621 36594 ft 411 kts 230°
2026-05-06 19:53 47.07989 7.21346 36778 ft 411 kts 230°
2026-05-06 19:53 47.06200 7.18063 36870 ft 412 kts 230°
2026-05-06 19:54 47.02618 7.11503 36884 ft 412 kts 230°
2026-05-06 19:54 46.99034 7.04953 36894 ft 412 kts 230°
2026-05-06 19:55 46.95450 6.98406 36885 ft 411 kts 230°
2026-05-06 19:55 46.91851 6.91884 36892 ft 413 kts 227°
2026-05-06 19:56 46.87576 6.86304 36896 ft 413 kts 218°
2026-05-06 19:56 46.83113 6.81008 36899 ft 414 kts 218°
2026-05-06 19:57 46.78650 6.75703 36897 ft 414 kts 219°
2026-05-06 19:57 46.74193 6.70406 36889 ft 413 kts 219°
2026-05-06 19:58 46.69740 6.65128 36898 ft 413 kts 219°
2026-05-06 19:58 46.65282 6.59860 36908 ft 413 kts 218°
2026-05-06 19:59 46.60815 6.54605 36905 ft 413 kts 218°
2026-05-06 19:59 46.56353 6.49358 36914 ft 413 kts 218°
2026-05-06 20:00 46.51886 6.44121 36931 ft 413 kts 218°
2026-05-06 20:00 46.47409 6.38861 36911 ft 415 kts 218°
2026-05-06 20:01 46.42921 6.33608 36903 ft 415 kts 218°
2026-05-06 20:01 46.38417 6.28356 36923 ft 416 kts 218°
2026-05-06 20:02 46.33911 6.23100 36938 ft 416 kts 218°
2026-05-06 20:02 46.29363 6.17815 36949 ft 416 kts 218°
2026-05-06 20:03 46.24463 6.13543 36952 ft 417 kts 201°
2026-05-06 20:03 46.18796 6.11749 36918 ft 419 kts 191°
2026-05-06 20:04 46.13029 6.10482 36924 ft 419 kts 191°
2026-05-06 20:04 46.07261 6.09196 36948 ft 420 kts 191°
2026-05-06 20:05 46.01484 6.07903 36951 ft 420 kts 191°
2026-05-06 20:05 45.95705 6.06618 36955 ft 420 kts 191°
2026-05-06 20:06 45.89935 6.05351 36961 ft 419 kts 191°
2026-05-06 20:06 45.84171 6.04083 36959 ft 419 kts 191°
2026-05-06 20:07 45.78405 6.02812 36955 ft 419 kts 191°
2026-05-06 20:07 45.72644 6.01556 36962 ft 419 kts 191°
2026-05-06 20:08 45.66840 6.00296 36958 ft 419 kts 191°
2026-05-06 20:08 45.61082 5.99029 36948 ft 418 kts 192°
2026-05-06 20:09 45.55329 5.97757 36955 ft 418 kts 192°
2026-05-06 20:09 45.49574 5.96499 36958 ft 418 kts 192°
2026-05-06 20:10 45.43844 5.95057 36958 ft 417 kts 194°
2026-05-06 20:10 45.38208 5.93221 36947 ft 416 kts 196°
2026-05-06 20:11 45.32616 5.91352 36952 ft 416 kts 195°
2026-05-06 20:11 45.26934 5.89550 36950 ft 415 kts 195°
2026-05-06 20:12 45.21285 5.87809 36942 ft 415 kts 195°
2026-05-06 20:12 45.15645 5.86076 36940 ft 414 kts 195°
2026-05-06 20:13 45.10017 5.84336 36945 ft 414 kts 195°
2026-05-06 20:13 45.04385 5.82589 36938 ft 414 kts 195°
2026-05-06 20:14 44.98772 5.80859 36927 ft 413 kts 195°
2026-05-06 20:14 44.93194 5.79148 36936 ft 412 kts 195°
2026-05-06 20:15 44.87593 5.77424 36937 ft 412 kts 195°
2026-05-06 20:15 44.81955 5.75697 36931 ft 411 kts 195°
2026-05-06 20:16 44.76412 5.74006 36937 ft 410 kts 195°
2026-05-06 20:16 44.70841 5.72314 36936 ft 409 kts 195°
2026-05-06 20:17 44.65280 5.70617 36943 ft 409 kts 195°
2026-05-06 20:17 44.59709 5.68919 36916 ft 410 kts 195°
2026-05-06 20:18 44.54120 5.67219 36911 ft 411 kts 195°
2026-05-06 20:18 44.48523 5.65525 36905 ft 412 kts 195°
2026-05-06 20:19 44.42914 5.63829 36910 ft 413 kts 195°
2026-05-06 20:19 44.37333 5.61982 36919 ft 410 kts 202°
2026-05-06 20:20 44.32034 5.59087 36928 ft 409 kts 204°
2026-05-06 20:20 44.26740 5.56185 36904 ft 409 kts 204°
2026-05-06 20:21 44.21449 5.53287 36919 ft 408 kts 204°
2026-05-06 20:21 44.16164 5.50400 36919 ft 408 kts 204°
2026-05-06 20:22 44.10877 5.47517 36924 ft 408 kts 204°
2026-05-06 20:22 44.05602 5.44645 36913 ft 407 kts 204°
2026-05-06 20:23 44.00330 5.41784 36920 ft 406 kts 204°
2026-05-06 20:23 43.95067 5.38937 36919 ft 406 kts 204°
2026-05-06 20:24 43.89810 5.36091 36905 ft 405 kts 204°
2026-05-06 20:24 43.84554 5.33259 36918 ft 405 kts 204°
2026-05-06 20:25 43.79303 5.30433 36931 ft 405 kts 204°
2026-05-06 20:25 43.74041 5.27599 36928 ft 406 kts 204°
2026-05-06 20:26 43.68778 5.24769 36912 ft 406 kts 205°
2026-05-06 20:26 43.63510 5.21953 36929 ft 406 kts 205°
2026-05-06 20:27 43.58247 5.19135 36954 ft 405 kts 204°
2026-05-06 20:27 43.52985 5.16325 36961 ft 405 kts 205°
2026-05-06 20:28 43.47731 5.13513 36959 ft 405 kts 205°
2026-05-06 20:28 43.42478 5.10724 36964 ft 404 kts 205°
2026-05-06 20:29 43.37395 5.07538 36963 ft 399 kts 216°
2026-05-06 20:29 43.32827 5.03215 36962 ft 399 kts 217°
2026-05-06 20:30 43.25988 4.96752 36959 ft 397 kts 217°
2026-05-06 20:31 43.22200 4.93191 36966 ft 397 kts 217°
2026-05-06 20:31 43.17632 4.88919 36961 ft 397 kts 217°
2026-05-06 20:32 43.12296 4.83926 36937 ft 398 kts 217°
2026-05-06 20:32 43.08499 4.80379 36948 ft 397 kts 217°
2026-05-06 20:33 43.03838 4.76328 36956 ft 398 kts 212°
2026-05-06 20:33 42.98990 4.72659 36961 ft 398 kts 212°
2026-05-06 20:34 42.94144 4.68996 36965 ft 398 kts 212°
2026-05-06 20:34 42.89305 4.65329 36961 ft 398 kts 212°
2026-05-06 20:35 42.84471 4.61667 36964 ft 397 kts 212°
2026-05-06 20:35 42.79630 4.58026 36972 ft 397 kts 212°
2026-05-06 20:36 42.74795 4.54384 36966 ft 398 kts 212°
2026-05-06 20:36 42.69949 4.50740 36958 ft 398 kts 212°
2026-05-06 20:37 42.65094 4.47100 36962 ft 399 kts 212°
2026-05-06 20:37 42.60233 4.43470 36967 ft 399 kts 212°
2026-05-06 20:38 42.55372 4.39838 36966 ft 399 kts 212°
2026-05-06 20:38 42.50509 4.36210 36948 ft 399 kts 212°
2026-05-06 20:39 42.45653 4.32592 36965 ft 398 kts 212°
2026-05-06 20:39 42.40802 4.28977 36966 ft 398 kts 212°
2026-05-06 20:40 42.35948 4.25381 36979 ft 398 kts 212°
2026-05-06 20:40 42.31099 4.21797 36956 ft 397 kts 212°
2026-05-06 20:41 42.26251 4.18216 36982 ft 397 kts 212°
2026-05-06 20:41 42.21410 4.14642 36976 ft 397 kts 212°
2026-05-06 20:42 42.16558 4.11073 36975 ft 397 kts 212°
2026-05-06 20:42 42.11708 4.07506 36963 ft 397 kts 212°
2026-05-06 20:43 42.06850 4.03957 36961 ft 397 kts 212°
2026-05-06 20:43 42.02000 4.00412 36974 ft 397 kts 212°
2026-05-06 20:44 41.97157 3.96858 36976 ft 397 kts 212°
2026-05-06 20:44 41.92207 3.93577 36982 ft 401 kts 202°
2026-05-06 20:45 41.86733 3.92076 36957 ft 406 kts 195°
2026-05-06 20:45 41.81169 3.90799 36967 ft 405 kts 195°
2026-05-06 20:46 41.75573 3.89489 36973 ft 405 kts 195°
2026-05-06 20:46 41.70057 3.88201 36954 ft 405 kts 195°
2026-05-06 20:47 41.64500 3.86922 36961 ft 405 kts 195°
2026-05-06 20:47 41.58940 3.85653 36976 ft 405 kts 195°
2026-05-06 20:48 41.53383 3.84383 36979 ft 405 kts 195°
2026-05-06 20:48 41.47831 3.83102 36945 ft 405 kts 195°
2026-05-06 20:49 41.42279 3.81829 36966 ft 405 kts 195°
2026-05-06 20:49 41.36730 3.80560 36979 ft 405 kts 195°
2026-05-06 20:50 41.31175 3.79290 36981 ft 405 kts 195°
2026-05-06 20:50 41.25613 3.78036 36959 ft 406 kts 195°
2026-05-06 20:51 41.20046 3.76780 36963 ft 406 kts 195°
2026-05-06 20:51 41.14536 3.75277 36964 ft 400 kts 204°
2026-05-06 20:52 41.09373 3.72616 36963 ft 398 kts 206°
2026-05-06 20:52 41.04204 3.69952 36941 ft 398 kts 206°
2026-05-06 20:53 40.99037 3.67300 36807 ft 398 kts 206°
2026-05-06 20:53 40.96428 3.65961 35786 ft 407 kts 206°
2026-05-06 20:53 40.93768 3.64597 34883 ft 412 kts 206°
2026-05-06 20:53 40.91093 3.63229 34119 ft 413 kts 206°
2026-05-06 20:54 40.88411 3.61855 33397 ft 412 kts 206°
2026-05-06 20:54 40.85752 3.60493 32671 ft 410 kts 206°
2026-05-06 20:54 40.83096 3.59134 32029 ft 407 kts 206°
2026-05-06 20:54 40.80477 3.57795 31553 ft 401 kts 206°
2026-05-06 20:55 40.77886 3.56472 31053 ft 397 kts 206°
2026-05-06 20:55 40.75362 3.55187 30576 ft 392 kts 206°
2026-05-06 20:55 40.72829 3.53900 30095 ft 388 kts 206°
2026-05-06 20:55 40.70294 3.52611 29562 ft 383 kts 206°
2026-05-06 20:56 40.67861 3.51372 29107 ft 377 kts 206°
2026-05-06 20:56 40.65435 3.50137 28648 ft 371 kts 206°
2026-05-06 20:56 40.63042 3.48922 28196 ft 366 kts 206°
2026-05-06 20:56 40.60685 3.47726 27757 ft 360 kts 206°
2026-05-06 20:57 40.58364 3.46550 27333 ft 355 kts 206°
2026-05-06 20:57 40.56076 3.45390 26909 ft 350 kts 206°
2026-05-06 20:57 40.53823 3.44247 26504 ft 345 kts 206°
2026-05-06 20:57 40.51602 3.43120 26100 ft 340 kts 206°
2026-05-06 20:58 40.49415 3.42012 25718 ft 335 kts 206°
2026-05-06 20:58 40.47258 3.40923 25343 ft 330 kts 206°
2026-05-06 20:58 40.45100 3.39928 24962 ft 329 kts 200°
2026-05-06 20:58 40.42833 3.39412 24551 ft 333 kts 191°
2026-05-06 20:59 40.40504 3.39430 24130 ft 336 kts 184°
2026-05-06 20:59 40.38175 3.39574 23720 ft 334 kts 184°
2026-05-06 20:59 40.35855 3.39711 23263 ft 333 kts 184°
2026-05-06 20:59 40.33547 3.39840 22825 ft 333 kts 184°
2026-05-06 21:00 40.31165 3.39957 22398 ft 348 kts 184°
2026-05-06 21:00 40.28729 3.40064 21974 ft 351 kts 184°
2026-05-06 21:00 40.26288 3.40191 21550 ft 351 kts 184°
2026-05-06 21:00 40.23853 3.40331 21293 ft 350 kts 183°
2026-05-06 21:01 40.21424 3.40476 21038 ft 349 kts 183°
2026-05-06 21:01 40.18997 3.40622 20762 ft 349 kts 183°
2026-05-06 21:01 40.16576 3.40770 20515 ft 348 kts 183°
2026-05-06 21:01 40.14158 3.40921 20269 ft 347 kts 183°
2026-05-06 21:02 40.11750 3.41070 20020 ft 346 kts 183°
2026-05-06 21:02 40.09347 3.41216 19776 ft 345 kts 183°
2026-05-06 21:02 40.06947 3.41362 19527 ft 345 kts 183°
2026-05-06 21:02 40.04555 3.41502 19287 ft 344 kts 183°
2026-05-06 21:03 40.02172 3.41636 19049 ft 343 kts 183°
2026-05-06 21:03 39.99791 3.41769 18812 ft 342 kts 183°
2026-05-06 21:03 39.97416 3.41904 18568 ft 341 kts 182°
2026-05-06 21:03 39.95045 3.42041 18335 ft 341 kts 182°
2026-05-06 21:04 39.92681 3.42176 18085 ft 340 kts 182°
2026-05-06 21:04 39.90319 3.42309 17812 ft 339 kts 182°
2026-05-06 21:04 39.87970 3.42440 17548 ft 338 kts 182°
2026-05-06 21:04 39.85625 3.42572 17284 ft 337 kts 182°
2026-05-06 21:05 39.83291 3.42702 17020 ft 335 kts 182°
2026-05-06 21:05 39.80964 3.42826 16767 ft 334 kts 182°
2026-05-06 21:05 39.78642 3.42946 16501 ft 333 kts 182°
2026-05-06 21:05 39.76332 3.43070 16246 ft 332 kts 182°
2026-05-06 21:06 39.74031 3.43102 15971 ft 329 kts 190°
2026-05-06 21:06 39.71859 3.42464 15729 ft 322 kts 205°
2026-05-06 21:06 39.69915 3.41105 15478 ft 316 kts 219°
2026-05-06 21:06 39.68332 3.39157 15227 ft 312 kts 233°
2026-05-06 21:07 39.67191 3.36775 14986 ft 311 kts 244°
2026-05-06 21:07 39.66234 3.34268 14737 ft 310 kts 244°
2026-05-06 21:07 39.65272 3.31761 14497 ft 310 kts 244°
2026-05-06 21:07 39.64311 3.29264 14258 ft 308 kts 244°
2026-05-06 21:08 39.63366 3.26809 14015 ft 301 kts 244°
2026-05-06 21:08 39.62443 3.24413 13777 ft 294 kts 244°
2026-05-06 21:08 39.61537 3.22067 13513 ft 288 kts 244°
2026-05-06 21:08 39.60647 3.19769 13243 ft 283 kts 244°
2026-05-06 21:09 39.59766 3.17492 12979 ft 282 kts 244°
2026-05-06 21:09 39.58888 3.15222 12712 ft 281 kts 244°
2026-05-06 21:09 39.58011 3.12961 12449 ft 281 kts 244°
2026-05-06 21:09 39.57132 3.10703 12213 ft 280 kts 244°
2026-05-06 21:10 39.56253 3.08444 11873 ft 280 kts 244°
2026-05-06 21:10 39.55377 3.06194 11479 ft 279 kts 244°
2026-05-06 21:10 39.54504 3.03948 11075 ft 279 kts 244°
2026-05-06 21:10 39.53632 3.01701 10664 ft 279 kts 244°
2026-05-06 21:11 39.52760 2.99456 10269 ft 280 kts 244°
2026-05-06 21:11 39.51883 2.97199 9869 ft 281 kts 244°
2026-05-06 21:11 39.51003 2.94943 9432 ft 281 kts 244°
2026-05-06 21:11 39.50134 2.92715 9022 ft 280 kts 244°
2026-05-06 21:12 39.49269 2.90500 8621 ft 279 kts 244°
2026-05-06 21:12 39.48394 2.88263 8208 ft 278 kts 244°
2026-05-06 21:12 39.47522 2.86037 7817 ft 277 kts 244°
2026-05-06 21:12 39.46654 2.83821 7412 ft 276 kts 244°
2026-05-06 21:13 39.45788 2.81612 7023 ft 275 kts 244°
2026-05-06 21:13 39.44925 2.79408 6654 ft 273 kts 244°
2026-05-06 21:13 39.44069 2.77221 6264 ft 272 kts 245°
2026-05-06 21:13 39.43455 2.74927 5875 ft 270 kts 259°
2026-05-06 21:14 39.43214 2.72524 5491 ft 269 kts 264°
2026-05-06 21:14 39.43002 2.70129 5105 ft 268 kts 264°
2026-05-06 21:14 39.42786 2.67736 4710 ft 268 kts 263°
2026-05-06 21:14 39.42567 2.65346 4338 ft 266 kts 263°
2026-05-06 21:15 39.42352 2.63016 4209 ft 255 kts 263°
2026-05-06 21:15 39.42148 2.60791 4145 ft 241 kts 263°
2026-05-06 21:15 39.41956 2.58693 3971 ft 230 kts 263°
2026-05-06 21:15 39.41774 2.56689 3775 ft 221 kts 263°
2026-05-06 21:16 39.41597 2.54727 3487 ft 219 kts 263°
2026-05-06 21:16 39.41423 2.52773 3364 ft 219 kts 265°
2026-05-06 21:16 39.41433 2.51472 3275 ft 219 kts 278°
2026-05-06 21:16 39.42065 2.49736 3175 ft 217 kts 318°
2026-05-06 21:17 39.43403 2.49013 3072 ft 208 kts
2026-05-06 21:17 39.44699 2.49700 2992 ft 205 kts 48°
2026-05-06 21:17 39.45384 2.51310 3019 ft 207 kts 66°
2026-05-06 21:17 39.46087 2.52940 3009 ft 207 kts 59°
2026-05-06 21:18 39.46852 2.54530 2896 ft 208 kts 58°
2026-05-06 21:18 39.47609 2.56110 2684 ft 204 kts 59°
2026-05-06 21:18 39.48339 2.57641 2407 ft 196 kts 59°
2026-05-06 21:18 39.49038 2.59112 2143 ft 187 kts 59°
2026-05-06 21:19 39.49708 2.60519 1896 ft 180 kts 59°
2026-05-06 21:19 39.50355 2.61881 1667 ft 175 kts 59°
2026-05-06 21:19 39.50974 2.63184 1445 ft 164 kts 59°
2026-05-06 21:19 39.51557 2.64412 1224 ft 158 kts 59°
2026-05-06 21:20 39.52130 2.65619 1015 ft 156 kts 59°
2026-05-06 21:20 39.52695 2.66810 815 ft 154 kts 59°
2026-05-06 21:20 39.53253 2.67983 646 ft 151 kts 60°
2026-05-06 21:20 39.53805 2.69138 424 ft 150 kts 60°
2026-05-06 21:21 39.54347 2.70276 238 ft 147 kts 61°
2026-05-06 21:21 39.54865 2.71398 46 ft 143 kts 60°
2026-05-06 21:21 39.55332 2.72381 38 ft 101 kts 58°
2026-05-06 21:21 39.55595 2.72926 38 ft 37 kts 58°
2026-05-06 21:22 39.55702 2.73161 38 ft 26 kts 67°
2026-05-06 21:22 39.55720 2.73380 38 ft 21 kts 88°
2026-05-06 21:22 39.55717 2.73508 38 ft 12 kts 110°
2026-05-06 21:22 39.55660 2.73510 38 ft 6 kts 228°
2026-05-06 21:23 39.55657 2.73504 38 ft 0 kts 235°
2026-05-06 21:23 39.55651 2.73501 38 ft 2 kts 205°
2026-05-06 21:23 39.55613 2.73507 35 ft 10 kts 157°
2026-05-06 21:24 39.55531 2.73573 38 ft 15 kts 148°
2026-05-06 21:24 39.55441 2.73642 36 ft 15 kts 149°
2026-05-06 21:24 39.55353 2.73710 36 ft 14 kts 149°
2026-05-06 21:24 39.55271 2.73773 38 ft 11 kts 149°
2026-05-06 21:25 39.55218 2.73815 38 ft 8 kts 150°
2026-05-06 21:25 39.55174 2.73804 37 ft 6 kts 229°
2026-05-06 21:25 39.55149 2.73777 38 ft 4 kts 199°
2026-05-06 21:25 39.55128 2.73783 38 ft 4 kts 155°
2026-05-06 21:26 39.55096 2.73803 38 ft 7 kts 155°
2026-05-06 21:26 39.55046 2.73816 38 ft 8 kts 198°
2026-05-06 21:26 39.55018 2.73760 38 ft 7 kts 240°
2026-05-06 21:26 39.55003 2.73729 38 ft 0 kts 239°